Regional Weather Roundup
Issued by NWS

Home | Current Version | Previous Version | Text Only | Print | Product List | Glossary On
Versions: 1 2 3 4 5 6 7 8 9 10 11 12 13 14 15 16 17 18 19 20 21 22 23 24 25 26 27 28 29 30 31 32 33 34 35 36 37 38 39 40 41 42 43 44 45 46 47 48 49 50
000
ASUS43 KDTX 252310
RWRMI
MICHIGAN HOURLY REGIONAL WEATHER ROUNDUP
NATIONAL WEATHER SERVICE DETROIT/PONTIAC MI
700 PM EDT SAT OCT 25 2014

NOTE: "FAIR" INDICATES FEW OR NO CLOUDS BELOW 12,000 FEET WITH NO
SIGNIFICANT WEATHER AND/OR OBSTRUCTION TO VISIBILITY.

MIZ047>049-052>055-059>063-066>070-074>076-081>083-260000-
SOUTHEAST LOWER MICHIGAN

CITY           SKY/WX    TMP DP  RH WIND       PRES   REMARKS
ADRIAN         CLEAR     62  29  28 NW10      29.82R
ALMA           CLEAR     58  29  32 W14G22    29.79R
ANN ARBOR      CLEAR     60  28  29 W14G21    29.79R
BAD AXE        CLEAR     56  37  48 W10       29.71R
DETROIT CITY   CLEAR     66  27  23 W17G29    29.75R
DETROIT        PTCLDY    63  28  26 W22G31    29.77R
FLINT          CLEAR     60  33  36 W16       29.76R
GROSSE ILE     CLEAR     64  18  16 W20G29    29.76R
HILLSDALE      CLEAR     61  29  29 W14G22    29.83R
HOWELL         CLEAR     58  31  35 W13G18    29.78R

CITY           SKY/WX    TMP DP  RH WIND       PRES   REMARKS
JACKSON        CLEAR     60  31  33 W10G21    29.81R
LAMBERTVILLE   CLEAR     63  30  29 W10       29.81R
LANSING        CLEAR     60  31  33 W16G26    29.81R
LAPEER         NOT AVBL
MASON          CLEAR     59  32  36 W14G23    29.80R
MT. CLEMENS    CLEAR     63  27  25 W20       29.70R
PONTIAC        CLEAR     59  32  36 W18       29.76R
PORT HOPE        N/A     57  35  43 W13G24    29.67R
PORT HURON     CLEAR     63  30  29 W14G21    29.70R
TRI CITIES     CLEAR     60  31  33 W16G24    29.76R
YPSILANTI      CLEAR     64  29  26 W14       29.79R
$$
MIZ043>046-050>051-056>058-064>065-071>073-077>080-260000-
SOUTHWEST LOWER MICHIGAN

CITY           SKY/WX    TMP DP  RH WIND       PRES   REMARKS
BATTLE CREEK   CLEAR     61  31  32 W15G25    29.84S
BENTON HARBOR  CLEAR     58  43  57 W10       29.88S
BIG RAPIDS     CLEAR     56  37  47 W9        29.78S
COLDWATER      CLEAR     62  31  31 W10G17    29.84S
HOLLAND        CLEAR     60  41  49 W10G23    29.85S
GRAND RAPIDS   CLEAR     61  34  36 W13       29.83R
KALAMAZOO      CLEAR     62  33  33 W15G23    29.85S
MARSHALL       CLEAR     59  32  36 W15G21    29.82S
MUSKEGON       CLEAR     59  40  49 NW14      29.84R
$$
MIZ016>042-260000-
NORTHERN LOWER MICHIGAN

CITY           SKY/WX    TMP DP  RH WIND       PRES   REMARKS
ALPENA         CLEAR     54  34  46 W8        29.67R
BEAVER ISLAND  CLEAR     53  39  60 W6        29.73S
BELLAIRE       CLEAR     55  36  49 W5        29.75R
CADILLAC       CLEAR     54  32  44 W12G17    29.76S
CHARLEVOIX     CLEAR     53  46  76 NW6       29.77R
FRANKFORT      CLEAR     55  40  56 NW9       29.78R
GAYLORD        CLEAR     53  33  46 W10G18    29.72R
GRAYLING       CLEAR     54  31  40 W10       29.74R
HARBOR SPRINGS CLEAR     54  33  44 NW7G16    29.73R
HOUGHTON LAKE  CLEAR     55  31  39 W14G22    29.74R
MANISTEE       CLEAR     54  36  50 W12       29.80S
OSCODA         CLEAR     55  33  43 W12G18    29.68S
PELLSTON       CLEAR     53  33  46 NW18G24   29.72R
TRAVERSE CITY  CLEAR     55  33  43 W9        29.75R
$$
MIZ007>008-015-260000-
EASTERN UPPER MICHIGAN

CITY           SKY/WX    TMP DP  RH WIND       PRES   REMARKS
KINROSS        CLOUDY    52  34  50 W23G30    29.66R
MACKINAC ISLAN MOCLDY    53  33  47 W22G30    29.70S
NEWBERRY       CLEAR     49  32  51 W23G31    29.72R
S. S. MARIE    CLOUDY    51  36  56 W23G37    29.64F
$$
MIZ004>006-011>014-085-260000-
CENTRAL UPPER MICHIGAN

CITY           SKY/WX    TMP DP  RH WIND       PRES   REMARKS
MANISTIQUE     CLEAR     54  28  37 NW14G23   29.74R
ESCANABA       CLEAR     55  25  30 NW14G26   29.77R
MENOMINEE      CLEAR     61  21  21 NW10G16   29.79R
SAWYER-GWINN   CLEAR     52  27  37 W21G33    29.77R
$$
MIZ001>003-009>011-084-260000-
WESTERN UPPER MICHIGAN

CITY           SKY/WX    TMP DP  RH WIND       PRES   REMARKS
IRON MOUNTAIN  CLEAR     56  20  24 NW18G30   29.80R
HOUGHTON       CLEAR     50  32  50 W22G30    29.79R
COPPER HARBOR    N/A     52  34  50 NW18G35   29.74
IRONWOOD       CLEAR     54  27  35 W15G24    29.86R
$$

ABBREVIATIONS USED IN REMARKS
   TC - TEMPERATURE IN CELSIUS
  WCI - WIND CHILL INDEX
   HX - HEAT INDEX
  VSB - VISIBILITY




USA.gov is the U.S. government's official web portal to all federal, state and local government web resources and services.